TimeEDT,TemperatureF,Dew PointF,Humidity,Sea Level PressureIn,VisibilityMPH,Wind Direction,Wind SpeedMPH,Gust SpeedMPH,PrecipitationIn,Events,Conditions,WindDirDegrees,DateUTC
12:15 AM,53.6,53.6,100,29.85,0.2,South,13.8,24.2,N/A,Fog,Fog,170,2013-11-01 04:15:00
12:35 AM,53.6,53.6,100,29.84,0.2,South,15.0,25.3,N/A,,Drizzle,190,2013-11-01 04:35:00
12:55 AM,53.6,53.6,100,29.82,0.2,SSW,13.8,20.7,N/A,,Drizzle,200,2013-11-01 04:55:00
1:15 AM,55.4,55.4,100,29.83,0.2,SSW,18.4,25.3,N/A,Rain,Light Rain,210,2013-11-01 05:15:00
1:57 AM,55.4,55.4,100,29.84,7.0,SSW,16.1,25.3,N/A,,Overcast,210,2013-11-01 05:57:00
2:15 AM,55.4,55.4,100,29.82,2.0,SSW,18.4,28.8,N/A,,Overcast,210,2013-11-01 06:15:00
2:57 AM,57.2,57.2,100,29.80,10.0,SSW,13.8,34.5,N/A,,Overcast,200,2013-11-01 06:57:00
3:17 AM,57.2,55.4,94,29.80,10.0,SSW,17.3,33.4,N/A,Rain,Rain,210,2013-11-01 07:17:00
3:38 AM,57.2,57.2,100,29.78,10.0,SSW,23.0,33.4,0.01,,Light Drizzle,200,2013-11-01 07:38:00
3:57 AM,57.2,57.2,100,29.77,10.0,SSW,15.0,40.3,N/A,,Overcast,200,2013-11-01 07:57:00
4:17 AM,57.2,55.4,94,29.76,10.0,SSW,16.1,29.9,N/A,,Overcast,200,2013-11-01 08:17:00
4:37 AM,57.2,55.4,94,29.76,10.0,SSW,19.6,32.2,N/A,,Overcast,200,2013-11-01 08:37:00
4:57 AM,57.2,55.4,94,29.76,10.0,SSW,17.3,34.5,N/A,,Overcast,210,2013-11-01 08:57:00
5:17 AM,57.2,55.4,94,29.75,10.0,SSW,17.3,31.1,N/A,,Overcast,200,2013-11-01 09:17:00
5:35 AM,59.0,55.4,88,29.74,10.0,SSW,21.9,31.1,N/A,,Overcast,210,2013-11-01 09:35:00
5:55 AM,59.0,55.4,88,29.75,10.0,SSW,17.3,25.3,N/A,,Overcast,210,2013-11-01 09:55:00
6:15 AM,59.0,55.4,88,29.75,10.0,SSW,20.7,33.4,N/A,,Overcast,210,2013-11-01 10:15:00
6:35 AM,59.0,55.4,88,29.74,10.0,SSW,18.4,31.1,N/A,,Overcast,210,2013-11-01 10:35:00
6:55 AM,59.0,55.4,88,29.77,7.0,West,23.0,32.2,N/A,,Overcast,260,2013-11-01 10:55:00
7:15 AM,53.6,53.6,100,29.79,0.2,West,21.9,34.5,0.27,Rain,Heavy Rain,280,2013-11-01 11:15:00
7:35 AM,53.6,53.6,100,29.80,0.5,West,23.0,28.8,0.38,Rain,Heavy Rain,270,2013-11-01 11:35:00
7:55 AM,51.8,51.8,100,29.80,0.5,West,25.3,34.5,0.02,Rain,Rain,280,2013-11-01 11:55:00
8:15 AM,51.8,51.8,100,29.80,5.0,West,28.8,39.1,0.03,Rain,Light Rain,270,2013-11-01 12:15:00
8:35 AM,51.8,51.8,100,29.81,10.0,West,29.9,36.8,0.03,Rain,Light Rain,270,2013-11-01 12:35:00
8:55 AM,51.8,51.8,100,29.81,7.0,West,26.5,36.8,N/A,Rain,Light Rain,270,2013-11-01 12:55:00
9:15 AM,51.8,51.8,100,29.83,10.0,West,26.5,35.7,N/A,,Overcast,270,2013-11-01 13:15:00
9:35 AM,51.8,51.8,100,29.82,10.0,West,21.9,34.5,N/A,Rain,Light Rain,270,2013-11-01 13:35:00
9:55 AM,51.8,51.8,100,29.82,10.0,West,24.2,29.9,N/A,,Overcast,270,2013-11-01 13:55:00
10:15 AM,51.8,51.8,100,29.82,10.0,West,21.9,28.8,N/A,,Overcast,270,2013-11-01 14:15:00
10:35 AM,53.6,51.8,94,29.82,10.0,West,19.6,29.9,N/A,,Overcast,270,2013-11-01 14:35:00
10:55 AM,53.6,51.8,94,29.82,10.0,West,20.7,27.6,N/A,,Overcast,270,2013-11-01 14:55:00
11:15 AM,53.6,51.8,94,29.82,10.0,West,17.3,28.8,N/A,,Overcast,270,2013-11-01 15:15:00
11:35 AM,53.6,51.8,94,29.83,10.0,West,17.3,25.3,N/A,,Overcast,260,2013-11-01 15:35:00
11:55 AM,55.4,51.8,88,29.82,10.0,West,17.3,24.2,N/A,,Overcast,260,2013-11-01 15:55:00
12:15 PM,55.4,50.0,82,29.83,10.0,West,16.1,26.5,N/A,,Mostly Cloudy,270,2013-11-01 16:15:00
12:35 PM,55.4,48.2,77,29.83,10.0,West,18.4,26.5,N/A,,Mostly Cloudy,260,2013-11-01 16:35:00
12:55 PM,57.2,48.2,72,29.83,10.0,WSW,17.3,23.0,N/A,,Mostly Cloudy,250,2013-11-01 16:55:00
1:15 PM,57.2,48.2,72,29.81,10.0,West,19.6,25.3,N/A,,Scattered Clouds,260,2013-11-01 17:15:00
1:35 PM,59.0,46.4,63,29.80,10.0,WSW,16.1,23.0,N/A,,Scattered Clouds,250,2013-11-01 17:35:00
1:55 PM,60.8,46.4,59,29.79,10.0,West,17.3,26.5,N/A,,Scattered Clouds,260,2013-11-01 17:55:00
2:15 PM,60.8,46.4,59,29.79,10.0,WSW,16.1,-,N/A,,Scattered Clouds,250,2013-11-01 18:15:00
2:35 PM,60.8,46.4,59,29.78,10.0,WSW,15.0,19.6,N/A,,Scattered Clouds,250,2013-11-01 18:35:00
2:55 PM,60.8,46.4,59,29.78,10.0,WSW,13.8,20.7,N/A,,Clear,250,2013-11-01 18:55:00
3:15 PM,60.8,46.4,59,29.78,10.0,WSW,10.4,-,N/A,,Clear,250,2013-11-01 19:15:00
3:35 PM,60.8,44.6,55,29.79,10.0,SW,16.1,20.7,N/A,,Clear,230,2013-11-01 19:35:00
3:55 PM,60.8,42.8,52,29.78,10.0,WSW,11.5,23.0,N/A,,Clear,250,2013-11-01 19:55:00
4:15 PM,60.8,42.8,52,29.78,10.0,WSW,12.7,17.3,N/A,,Clear,240,2013-11-01 20:15:00
6:15 PM,57.2,42.8,59,29.77,10.0,West,5.8,-,N/A,,Clear,270,2013-11-01 22:15:00
6:35 PM,55.4,42.8,63,29.78,10.0,West,6.9,-,N/A,,Clear,280,2013-11-01 22:35:00
6:55 PM,55.4,42.8,63,29.79,10.0,West,8.1,-,N/A,,Clear,280,2013-11-01 22:55:00
7:15 PM,55.4,42.8,63,29.80,10.0,West,6.9,-,N/A,,Clear,270,2013-11-01 23:15:00
7:35 PM,55.4,42.8,63,29.81,10.0,West,9.2,-,N/A,,Scattered Clouds,280,2013-11-01 23:35:00
7:55 PM,53.6,42.8,67,29.81,10.0,West,9.2,-,N/A,,Clear,270,2013-11-01 23:55:00
8:15 PM,53.6,41.0,62,29.81,10.0,West,10.4,-,N/A,,Clear,270,2013-11-02 00:15:00
8:35 PM,53.6,39.2,58,29.81,10.0,West,10.4,-,N/A,,Clear,270,2013-11-02 00:35:00
8:55 PM,53.6,39.2,58,29.81,10.0,West,10.4,-,N/A,,Clear,280,2013-11-02 00:55:00
9:15 PM,53.6,39.2,58,29.81,10.0,West,8.1,-,N/A,,Clear,280,2013-11-02 01:15:00
9:35 PM,53.6,39.2,58,29.81,10.0,WNW,8.1,-,N/A,,Scattered Clouds,290,2013-11-02 01:35:00
9:55 PM,51.8,41.0,67,29.82,10.0,NW,8.1,-,N/A,,Mostly Cloudy,310,2013-11-02 01:55:00
10:15 PM,51.8,41.0,67,29.82,10.0,WNW,6.9,-,N/A,,Scattered Clouds,300,2013-11-02 02:15:00
10:35 PM,51.8,41.0,67,29.82,10.0,NW,5.8,-,N/A,,Scattered Clouds,310,2013-11-02 02:35:00
10:55 PM,50.0,41.0,71,29.82,10.0,NW,5.8,-,N/A,,Scattered Clouds,320,2013-11-02 02:55:00
11:15 PM,50.0,42.8,76,29.82,10.0,WNW,6.9,-,N/A,,Mostly Cloudy,300,2013-11-02 03:15:00
11:35 PM,48.2,42.8,82,29.82,10.0,WNW,5.8,-,N/A,,Mostly Cloudy,300,2013-11-02 03:35:00
11:55 PM,48.2,42.8,82,29.82,10.0,WNW,6.9,-,N/A,,Scattered Clouds,300,2013-11-02 03:55:00